Hourly Data Report for June 13, 2012

All times are specified in Local Standard Time (LST). Add 1 hour to adjust for Daylight Saving Time where and when it is observed.

SAINT JOHN A
NEW BRUNSWICK

45°18'58.000" N
65°53'24.000" W
108.80 m
8104901
71609
YSJ

Download Data

Hourly Data (June 2012)
Hourly Data Report for June 13, 2012
Temp Definition
°C
Dew Point Temp Definition
°C
Rel Hum Definition
%
Wind Dir Definition
10's deg

Wind Spd Definition
km/h
Visibility Definition
km
Stn Press Definition
kPa
Hmdx Definition


Wind Chill Definition


Weather Definition


TIME
00:00 Legend Double Dagger 10.5 6.5 76 17 10 10.0 100.52     LegendNANA
01:00 Legend Double Dagger 9.1 6.4 83   0 10.0 100.51     LegendNANA
02:00 Legend Double Dagger 9.0 6.3 83 21 6 10.0 100.47     Mainly Clear
03:00 Legend Double Dagger 9.2 6.3 82 19 9 10.0 100.44     LegendNANA
04:00 Legend Double Dagger 9.4 6.7 83 20 5 10.0 100.44     LegendNANA
05:00 Legend Double Dagger 9.1 6.7 85 17 6 10.0 100.44     Mostly Cloudy
06:00 Legend Double Dagger 10.5 7.4 81 15 9 10.0 100.45     LegendNANA
07:00 Legend Double Dagger 13.2 8.1 71 16 13 10.0 100.47     LegendNANA
08:00 Legend Double Dagger 15.1 8.6 65 17 20 10.0 100.46     Mostly Cloudy
09:00 Legend Double Dagger 17.5 10.0 61 20 26 10.0 100.44     LegendNANA
10:00 Legend Double Dagger 18.0 9.5 57 20 25 10.0 100.45     LegendNANA
11:00 Legend Double Dagger 18.2 10.7 61 20 28 10.0 100.49     Mostly Cloudy
12:00 Legend Double Dagger 18.3 10.0 58 21 30 10.0 100.51     LegendNANA
13:00 Legend Double Dagger 18.3 10.7 61 21 30 10.0 100.53     LegendNANA
14:00 Legend Double Dagger 18.5 11.7 64 20 30 10.0 100.52     Mostly Cloudy
15:00 Legend Double Dagger 18.6 12.4 67 23 22 10.0 100.48     LegendNANA
16:00 Legend Double Dagger 17.0 12.2 73 21 26 10.0 100.52     LegendNANA
17:00 Legend Double Dagger 14.5 11.3 81 23 11 10.0 100.52     Cloudy
18:00 Legend Double Dagger 13.8 11.7 87 25 13 10.0 100.53     LegendNANA
19:00 Legend Double Dagger 13.2 11.4 89 21 10 10.0 100.52     LegendNANA
20:00 Legend Double Dagger 12.4 11.3 93 21 8 10.0 100.55     Cloudy
21:00 Legend Double Dagger 12.5 11.7 95 20 6 10.0 100.56     LegendNANA
22:00 Legend Double Dagger 12.6 11.8 95 24 5 10.0 100.58     LegendNANA
23:00 Legend Double Dagger 12.8 12.0 95 23 4 10.0 100.57     Cloudy

Notes on Data Quality.

Legend

  • E = Estimated
  • M = Missing
  • NA = Not Available
  • ‡ = Partner data that is not subject to review by the National Climate Archives
Date modified: